Preview of NWS' New Version of Forecast
This preview is not operational and should not be used for support decisions.

Regional Weather Roundup (RWR)

Issued by National Weather Service (NWS)

                            
000
ASUS42 KTBW 190116
RWRFL 
FLORIDA REGIONAL WEATHER ROUNDUP
NATIONAL WEATHER SERVICE TAMPA BAY RUSKIN FL
800 PM EST MON FEB 18 2019

NOTE: "FAIR" INDICATES FEW OR NO CLOUDS BELOW 12,000 FEET WITH NO
SIGNIFICANT WEATHER AND/OR OBSTRUCTIONS TO VISIBILITY.

FLZ001>010-012>015-112-114-115-190200-
PANHANDLE FLORIDA
  
CITY           SKY/WX    TMP DP  RH WIND       PRES   REMARKS
PENSACOLA      CLOUDY    58  44  60 NE9G20    30.19S                  
PENSACOLA NAS  CLOUDY    58  43  57 NE15G23   30.17F                  
MILTON NAS     CLOUDY    56  44  64 VRB6      30.21                   
CRESTVIEW      CLOUDY    56  45  66 N7        30.24R                  
DUKE FIELD     CLOUDY    55  46  71 N8        30.21R                  
VALPARAISO     CLOUDY    55  48  76 NE12      30.19R                  
MARY ESTHER    CLOUDY    57  45  64 NE13      30.19R                  
PANAMA CITY    CLOUDY    58  46  64 N9        30.19R                  
TYNDALL AFB    CLOUDY    59  47  63 NE15G22   30.18R                  
APALACHICOLA   CLOUDY    62  51  67 NE13      30.16R                  

STATION/POSITION SKY/WX   TEMP    WIND        PRES    WAVE   SWELL
                          AIR SEA DIR/SP/G            HT/PER HT/PER
                          (F)     (DEG/KT/KT) (MB)    (FT/S) (FT/S)
30.1N   87.6W              60      40/ 23/ 29 1021.7F   4/ 4   2/ 8
29.2N   88.2W                      50/ 23/ 29 1020.5R   8/ 7
PANAMA CITY BEAC           59 62   30/ 13/ 19 1022.1R
TOWER C                    62      50/ 26/ 28 1020.9R

$$
FLZ011-016>038-118-127-128-134-139-239-190200-
NORTH FLORIDA
  
CITY           SKY/WX    TMP DP  RH WIND       PRES   REMARKS
MARIANNA       CLOUDY    56  50  80 NE7       30.22R                  
TALLAHASSEE    CLOUDY    62  47  57 NE9       30.20R                  
PERRY          CLOUDY    62  53  72 NE8       30.21R                  
LIVE OAK       CLOUDY    63  46  55 N7        30.22R                  
CROSS CITY     CLOUDY    68  61  77 NE14      30.17R                  
LAKE CITY      CLOUDY    61  50  67 N9        30.21R                  
GAINESVILLE    CLOUDY    72  61  68 NE8       30.20R                  
WILLISTON        N/A    N/A N/A N/A MISG        N/A                   
PALATKA        CLOUDY   N/A N/A N/A MISG      30.19R                  
MAYPORT NAS    CLOUDY    62  56  80 NE12      30.21R                  
JACKSONVILLE   CLOUDY    65  51  60 N8        30.20R                  
JAX NAS        MOCLDY    66  59  78 NE12      30.22R                  
JAX CECIL      CLOUDY    68  59  73 N12       30.20R                  
FERNANDINA BEA CLOUDY    63  54  72 NE6       30.22R                  
ST AUGUSTINE   FAIR      62  58  86 N13       30.21R                  
PALM COAST     CLOUDY    64  58  81 N13       30.19R                  

STATION/POSITION SKY/WX   TEMP    WIND        PRES    WAVE   SWELL
                          AIR SEA DIR/SP/G            HT/PER HT/PER
                          (F)     (DEG/KT/KT) (MB)    (FT/S) (FT/S)
SHELL POINT      NOT AVBL
KEATON BEACH               63      40/ 10/ 14 1022.2R
CEDAR KEY                  68     330/  7/  9 1020.6R
FERNANDINA                 63 60  350/  4/  7 1023.9R
30.7N   81.3W                 60                N/A     2/ 9
MAYPORT                    62 59   30/  9/ 11 1023.0R
31.4N   80.9W              59 59  320/  6/  6 1022.8R   2/ 9   2/ 9
ST AUGUSTINE               62 62   10/ 16/ 17 1022.9R

$$
FLZ040-043>046-052-053-057-058-063-144-190200-
INTERIOR CENTRAL FLORIDA
  
CITY           SKY/WX    TMP DP  RH WIND       PRES   REMARKS
OCALA          FAIR      74  69  85 NW6       30.16R                  
LEESBURG       CLOUDY    77  67  71 N18       30.15R                  
SANFORD        MOCLDY    72  64  76 N15       30.14R                  
ORLANDO EXEC   FAIR      79  67  66 S3        30.13R                  
ORLANDO INTL   MOCLDY    77  67  71 CALM      30.13R                  
KISSIMMEE      MOCLDY    77  69  76 CALM      30.14R                  
WINTER HAVEN   FAIR      77  70  79 CALM      30.14R                  
LAKELAND       CLEAR     75  66  73 CALM      30.14R                  
BARTOW         FAIR      75  70  83 CALM      30.13R                  
SEBRING        CLOUDY    80  68  67 W3        30.13R                  
OKEECHOBEE     FAIR      73  70  88 CALM      30.12R                  

$$
FLZ041-047-054-059-064-141-147-190200-
EAST CENTRAL FLORIDA
  
CITY           SKY/WX    TMP DP  RH WIND       PRES   REMARKS
DAYTONA BEACH  FAIR      67  63  87 NE13      30.17R                  
DELAND         FAIR      66  61  82 N10       30.17R                  
NEW SMYRNA BEA MOCLDY    64  63  94 N10       30.17R                  
JFK SPACE CTR  MOCLDY    75  72  89 S5        30.13R                  
TITUSVILLE     MOCLDY    79  73  83 SE6       30.14R                  
CAPE CANAVERAL MOCLDY    74  72  93 S8        30.12R                  
PATRICK AFB    FAIR      71  71 100 SE7       30.13R                  
MELBOURNE      MOCLDY    76  72  87 SE7       30.13R                  
VERO BEACH     CLOUDY    76  72  87 SE10      30.13R                  
FT PIERCE      FAIR      76  72  87 SE7       30.13R                  
STUART         PTCLDY    79  73  83 S7        30.15R                  

STATION/POSITION SKY/WX   TEMP    WIND        PRES    WAVE   SWELL
                          AIR SEA DIR/SP/G            HT/PER HT/PER
                          (F)     (DEG/KT/KT) (MB)    (FT/S) (FT/S)
28.5N   80.2W              73     150/  6/  8 1020.8R   2/ 9   2/ 9
28.9N   78.5W              76 76  160/ 10/ 12 1022.0R   3/ 8   2/ 8
TRIDENT PIER               71 67  140/  6/  8 1021.6R
28.4N   80.5W                 66                N/A     2/ 9

$$
FLZ050-056-061-142-242-148-248-149-249-151-251-155-255-
160-260-190200-
WEST CENTRAL FLORIDA
  
CITY           SKY/WX    TMP DP  RH WIND       PRES   REMARKS
CRYSTAL RIVER  CLOUDY    72  72 100 CALM      30.15R FOG              
INVERNESS      FAIR      72  72 100 CALM      30.15R                  
BROOKSVILLE    FAIR      74  70  87 CALM      30.14R                  
CLEARWATER AIR FAIR      72  70  94 CALM      30.13R                  
ST PETE CLEARW FAIR      73  68  84 SW5       30.13R                  
TAMPA INTL     FAIR      75  70  84 CALM      30.13R                  
TAMPA EXEC     FAIR      73  70  88 CALM      30.14R                  
PLANT CITY     FAIR      77  70  78 CALM      30.15R                  
MACDILL AFB    FAIR      74  70  88 SW3       30.12R                  
PETER O KNIGHT CLOUDY    77  73  88 CALM      30.13R                  
ST PETERSBURG  FAIR      75  70  84 SW5       30.11R                  
SARASOTA       FAIR      75  72  90 S6        30.11R                  
VENICE         FAIR      75  75 100 S5        30.13R                  

STATION/POSITION SKY/WX   TEMP    WIND        PRES    WAVE   SWELL
                          AIR SEA DIR/SP/G            HT/PER HT/PER
                          (F)     (DEG/KT/KT) (MB)    (FT/S) (FT/S)
27.3N   84.2W                 72                N/A     4/ 8
CLEARWATER BEACH           73 71  180/  6/  6 1020.2R
MIDDLE TAMPA BAY           72     240/  5/  6 1020.0R
VENICE                     73 68  160/  8/  8   N/A

$$
FLZ066-069-070-075>078-162-262-165-265-190200-
SOUTHWEST FLORIDA AND KEYS
  
CITY           SKY/WX    TMP DP  RH WIND       PRES   REMARKS
PUNTA GORDA    FAIR      73  70  90 CALM      30.14R                  
FT MYERS       FAIR      76  70  82 CALM      30.12R                  
SOUTHWEST INTL FAIR      75  69  81 SW3       30.13R                  
NAPLES         FAIR      76  71  85 CALM      30.12R                  
MARCO ISLAND   FAIR     N/A N/A N/A CALM      30.14R                  
IMMOKALEE      FAIR      73  68  83 CALM      30.11R                  
MARATHON       FAIR      81  74  79 VRB6      30.12R                  
KEY WEST NAS   FAIR      79  74  84 E16       30.12R                  
KEY WEST INTL  FAIR      79  75  87 E10       30.12R                  

STATION/POSITION SKY/WX   TEMP    WIND        PRES    WAVE   SWELL
                          AIR SEA DIR/SP/G            HT/PER HT/PER
                          (F)     (DEG/KT/KT) (MB)    (FT/S) (FT/S)
NAPLES                     79 75   CALM  /  2 1020.0R
26.0N   85.6W              79 80  140/ 14/ 17 1017.8R   4/ 7   3/ 7
DRY TORTUGAS               77     110/  9/ 11 1019.3R
SAND KEY                   78                 1019.6R
SOMBRERO KEY               78                 1019.4R
LONG KEY                   78 80  110/ 10/ 11 1019.6R

$$
FLZ067-068-071>074-168-172>174-190200-
SOUTHEAST FLORIDA 
  
CITY           SKY/WX    TMP DP  RH WIND       PRES   REMARKS
W PALM BEACH   MOCLDY    78  72  81 SE13      30.14R                  
BOCA RATON     MOCLDY    79  73  83 S12       30.14R                  
FT LAUDER-EXEC MOCLDY    78  75  90 SE6       30.14R                  
FT LAUDERDALE  MOCLDY    79  76  90 S10       30.14R                  
POMPANO BEACH  FAIR      79  74  84 S10       30.14R                  
PEMBROKE PINES CLOUDY    78  72  81 SE7       30.16R                  
OPA LOCKA      FAIR      78  72  81 S7        30.15R                  
MIAMI          FAIR      77  75  93 SE7       30.15R                  
WEST KENDALL   FAIR      78  73  84 SE7       30.14R                  
HOMESTEAD      FAIR      77  73  88 SE6       30.13R                  

STATION/POSITION SKY/WX   TEMP    WIND        PRES    WAVE   SWELL
                          AIR SEA DIR/SP/G            HT/PER HT/PER
                          (F)     (DEG/KT/KT) (MB)    (FT/S) (FT/S)
VIRGINIA KEY               78 78  130/  6/  9 1020.0R
LAKE WORTH                 78 78  200/ 13/ 16 1021.7R
FOWEY ROCKS                78 77  140/ 11/ 11 1020.8R
SETTLEMENT POINT           77     150/  9/ 11 1021.7R

$$